STARLINK-5202, 54761

Orbit data source: Space-Track

STARLINK-5202, 54761 is a payload satellite owned by SpaceX/Seattle (US) in LEO that was launched on Sat, 17 Dec 2022 UTC via an FALCON 9 launch vehicle from the Air Force Eastern Test Range (AFETR). Payload-class satellites include a variety of spacecraft equipped with specific instruments for various scientific and technological missions. These include communications satellites like Starlink; space stations such as the ISS; scientific satellites like the Hubble; Earth observation satellites from companies like Planet Labs, Umbra, and HawkEye 360; GPS; miniature CubeSats for education and research; and military/defense satellites.

Loading next visibility...
Identifier
54761, 2022-175D
Orbit
LEO
Country
Flag of USUS
Related business
Manufacturer
SpaceX/Seattle
Mission
Operational Commercial Communications
Bus & Motor
STARLINK, Unknown motor
Mass
305 kg wet, ~290 kg dry
Launch date (UTC)
2022-12-17 (4 years ago)
Launch vehicle
FALCON 9
Launch site
Air Force Eastern Test Range (AFETR)
Object type
Payload
Rocket body
Debris
Shape & HBR
Box + 1 Pan, 10.1 m
Radar Cross Section
13.562 m², Large (>1 m²)

Expand to show TLE details & history
Last TLE update: 2 days ago

TLE from 2 days ago
0 STARLINK-5202
1 54761U 22175D   26171.34772563  .00000671  00000-0  60244-4 0  9998
2 54761  53.1606 303.3822 0001182  81.3150 278.7975 15.08833672195415
Epoch: 2026-06-20T08:20Z
TLE epoch observation values (Epoch: 2026-06-20T08:20:43.494Z)
Latitude
-0.00004°
Longitude
-90.3627°
Altitude
540.529 km
Speed
7.593 km/s
True Right ascension
20h 13m 31s
True Declination
0° 00' 00"
Sunlit
Object was in full shadow at epoch
Visualization orbit readout
Latitude
Unknown
Longitude
Unknown
Altitude
Unknown
Speed
Unknown
Apparent Right ascension
Unknown
Apparent Declination
Unknown
Sunlit
N/A
Visualization observer readout
Local Sidereal Time
21:33:51
Azimuth
Unknown
Elevation
Unknown
Doppler factor
Unknown
Orbital elements
Apogee altitude
540.834 km
Perigee altitude
539.199 km
Semi-major axis
6,918.154 km
Eccentricity
0.00012
Inclination
53.1606°
RAAN
303.3822°
Arg. of periapsis
81.315°
True anomaly
278.78411°
Mean anomaly
278.7975°
Eccentric anomaly
278.79081°
Mean motion
3.77188 °/min
Orbital period
95.44 mins
BSTAR
0.000060244
Loading maneuver chart data...
Computing Atmospheric mass density...
Loading historical data...
Loading historical data...
Loading historical data...
Loading historical data...
Loading historical data...
Loading historical data...
Loading historical data...

Documentation

Showing up to 5 results
|